Weather History for Guatemala Aeropuertola Aurora, Guatemala

Change the Weather History Date:

Monday, August 12, 2013

  Actual Average Record
Temperature  
Mean Temperature 70 °F -  
Max Temperature 77 °F 75 °F - ()
Min Temperature 62 °F 60 °F - ()
Cooling Degree Days 4    
Growing Degree Days 20 (Base 50)    
Moisture  
Dew Point 62 °F    
Average Humidity 84    
Maximum Humidity 100    
Minimum Humidity 57    
Precipitation  
Precipitation 0.00 in - - ()
Sea Level Pressure  
Sea Level Pressure 30.24 in    
Wind  
Wind Speed 10 mph ()    
Max Wind Speed 16 mph    
Max Gust Speed -    
Visibility 6.1 miles    
Events Rain , Thunderstorm    
T = Trace of Precipitation, MM = Missing Value Source: Averaged Metar Reports

Daily Weather History Graph

Daily Weather History Graph

Search for Another Location

Airport:

Trip Planner

Search our weather history database for the weather conditions in past years. The results will help you decide how hot, cold, wet, or windy it might be!

Date:

Astronomy

Aug. 12, 2013 Rise Set
Actual Time 5:47 AM CST 6:26 PM CST
Civil Twilight 5:25 AM CST 6:48 PM CST
Nautical Twilight 4:59 AM CST 7:14 PM CST
Astronomical Twilight 4:32 AM CST 7:40 PM CST
Moon 10:32 AM CST (8/12) 10:28 PM CST (8/12)
Length of Visible Light 13h 22m
Length of Day
12h 38m
Waxing Crescent, 32% of the Moon is Illuminated
Aug 12
Waxing Crescent
Aug 14
First Quarter
Aug 20
Full
Aug 28
Last Quarter
Sep 5
New

Hourly Weather History & Observations

Time (CST) Temp. Dew Point Humidity Pressure Visibility Wind Dir Wind Speed Gust Speed Precip Events Conditions
12:00 AM 64.4 °F 62.6 °F 94% 30.30 in 5.0 mi North 9.2 mph - N/A   Mostly Cloudy
1:00 AM 64.4 °F 62.6 °F 94% 30.27 in 6.2 mi North 9.2 mph - N/A   Scattered Clouds
2:00 AM 64.4 °F 62.6 °F 94% 30.27 in 6.2 mi North 13.8 mph - N/A   Mostly Cloudy
3:00 AM 64.4 °F 62.6 °F 94% 30.24 in 6.2 mi North 9.2 mph - N/A   Mostly Cloudy
4:00 AM 64.4 °F 62.6 °F 94% 30.24 in 6.2 mi North 6.9 mph - N/A   Mostly Cloudy
5:00 AM 62.6 °F 62.6 °F 100% 30.24 in 6.2 mi North 9.2 mph - N/A   Scattered Clouds
6:00 AM 62.6 °F 62.6 °F 100% 30.24 in 6.2 mi North 9.2 mph - N/A   Scattered Clouds
7:00 AM 64.4 °F 60.8 °F 88% 30.27 in 6.2 mi North 9.2 mph - N/A   Mostly Cloudy
8:00 AM 66.2 °F 62.6 °F 88% 30.27 in 6.2 mi North 9.2 mph - N/A   Scattered Clouds
9:00 AM 68.0 °F 60.8 °F 78% 30.27 in 6.2 mi North 9.2 mph - N/A   Scattered Clouds
10:00 AM 69.8 °F 60.8 °F 73% 30.27 in 6.2 mi North 11.5 mph - N/A   Scattered Clouds
11:00 AM 71.6 °F 60.8 °F 69% 30.27 in 6.2 mi NNW 13.8 mph - N/A   Scattered Clouds
12:00 PM 73.4 °F 60.8 °F 65% 30.24 in 6.2 mi NNE 13.8 mph - N/A   Partly Cloudy
1:00 PM 77.0 °F 60.8 °F 57% 30.21 in 6.2 mi NE 11.5 mph - N/A Thunderstorm Thunderstorm
2:00 PM 75.2 °F 62.6 °F 65% 30.18 in 6.2 mi NNE 13.8 mph - N/A Thunderstorm Thunderstorm
3:00 PM 75.2 °F 60.8 °F 61% 30.18 in 6.2 mi NNE 16.1 mph - N/A Thunderstorm Thunderstorm
3:16 PM - - N/A% - 6.2 mi NNE 13.8 mph - N/A Rain Rain
3:35 PM - - N/A% - 6.2 mi North 6.9 mph - N/A Thunderstorm Thunderstorm
3:43 PM - - N/A% - 6.2 mi NNE 6.9 mph - N/A Rain , Thunderstorm Thunderstorms and Rain
4:00 PM 68.0 °F 62.6 °F 83% 30.18 in 6.2 mi NNE 9.2 mph - N/A   Drizzle
4:10 PM - - N/A% - 6.2 mi North 9.2 mph - N/A   Scattered Clouds
4:37 PM - - N/A% - 6.2 mi NNE 16.1 mph - N/A   Drizzle
5:00 PM 68.0 °F 62.6 °F 83% 30.18 in 6.2 mi North 11.5 mph - N/A   Light Drizzle
5:28 PM - - N/A% - 6.2 mi NNE 13.8 mph - N/A   Mostly Cloudy
6:00 PM 68.0 °F 62.6 °F 83% 30.18 in 6.2 mi North 13.8 mph - N/A   Light Drizzle
7:00 PM 66.2 °F 62.6 °F 88% 30.21 in 6.2 mi North 11.5 mph - N/A   Mostly Cloudy
7:05 PM - - N/A% - 6.2 mi NNE 11.5 mph - N/A   Drizzle
7:42 PM - - N/A% - 6.2 mi NNW 9.2 mph - N/A Rain Light Rain
8:00 PM 66.2 °F 60.8 °F 83% 30.24 in 6.2 mi North 13.8 mph - N/A Rain , Thunderstorm Light Thunderstorms and Rain
8:35 PM - - N/A% - 6.2 mi North 11.5 mph - N/A   Mostly Cloudy
9:00 PM 64.4 °F 62.6 °F 94% 30.27 in 6.2 mi NNE 9.2 mph - N/A   Mostly Cloudy
10:00 PM 64.4 °F 62.6 °F 94% 30.30 in 6.2 mi North 11.5 mph - N/A   Overcast
10:28 PM - - N/A% - 3.1 mi NNW 11.5 mph - N/A Rain Rain
10:45 PM - - N/A% - 6.2 mi North 9.2 mph - N/A   Light Drizzle
11:00 PM 64.4 °F 62.6 °F 94% 30.30 in 6.2 mi NNE 9.2 mph - N/A   Scattered Clouds